Location: Newark
(53.3333°N, 83.7500°E)
Time: 03:30:58
(UTC+00:00)

Vanguard 2 - Pass Details

Date: 23 November 2019
Orbit: 553 x 2938 km, 32.9° (Epoch: 10 December)

Event Time Altitude Azimuth Distance (km) Brightness Sun altitude
Rises 03:28:09 0° 241° (WSW) 5,446 11.8 8.4°
Reaches altitude 10° 03:33:45 10° 225° (SW) 3,919 11.3 8.9°
Maximum altitude 03:39:20 17° 190° (S) 2,846 11.2 9.4°
Drops below altitude 10° 03:43:39 10° 152° (SSE) 2,892 13.3 9.8°
Sets 03:46:54 0° 131° (SE) 3,508 12.7 10.1°
